N2DJ Weather Reports


Display with metric or nautical units.
time (UTC)temp
F
wind
direction
speed
MPH
gust
MPH
rain 1hr
in
rain 24hr
in
rain mn
in
humidity
%
barometer
mb
20260831054533 66 196 0.0 0.0 0.01 0.05 0.01 99 1020.0
20260831053032 66 196 0.0 0.0 0.01 0.05 0.01 99 1019.8
20260831051536 66 196 0.0 0.0 0.01 0.05 0.01 99 1019.8
20260831050030 66 196 0.0 0.0 0.00 0.04 0.00 99 1020.0
20260831044529 66 196 0.0 0.0 0.00 0.04 0.00 99 1019.8
20260831043028 66 196 0.0 0.0 0.00 0.04 0.00 99 1019.8
20260831041528 66 196 0.0 0.0 0.00 0.04 0.00 98 1019.8
20260831040030 66 196 0.0 0.0 0.00 0.04 0.00 98 1019.9
20260831034528 66 196 0.0 0.0 0.00 0.04 0.04 98 1019.9
20260831033034 66 196 0.0 0.0 0.00 0.04 0.04 98 1020.0
20260831031523 65 196 0.0 1.0 0.00 0.04 0.04 98 1019.9
20260831030023 65 196 0.0 1.0 0.00 0.04 0.04 98 1020.1
20260831024528 65 196 0.0 2.0 0.00 0.04 0.04 98 1020.1
20260831023021 65 196 0.0 0.0 0.00 0.04 0.04 98 1020.2
20260831021540 64 197 0.0 1.0 0.00 0.04 0.04 98 1020.0
20260831020021 64 197 0.0 3.0 0.00 0.04 0.04 98 1020.2
20260831014520 64 198 0.0 0.0 0.00 0.04 0.04 98 1020.3
20260831013020 64 198 0.0 0.0 0.00 0.04 0.04 97 1020.2
20260831011536 65 198 0.0 2.0 0.00 0.04 0.04 97 1020.1
20260831010020 65 196 0.0 0.0 0.00 0.04 0.04 97 1020.2
20260831004520 65 196 0.0 0.0 0.00 0.04 0.04 97 1020.0
20260831003018 65 196 0.0 0.0 0.00 0.04 0.04 97 1019.7
20260831001533 65 196 0.0 0.0 0.00 0.04 0.04 97 1019.6
20260831000017 65 196 0.0 0.0 0.00 0.04 0.04 97 1019.4
20260830234523 65 196 0.0 0.0 0.00 0.04 0.04 96 1019.6
20260830233015 65 200 0.0 3.0 0.00 0.04 0.04 96 1019.4
20260830231515 65 251 0.0 0.0 0.00 0.04 0.04 95 1019.5
20260830230015 65 256 0.0 0.0 0.00 0.04 0.04 94 1019.5
20260830224514 66 256 0.0 0.0 0.00 0.04 0.04 94 1019.6
20260830223019 66 256 0.0 2.0 0.00 0.04 0.04 93 1019.6
20260830221513 66 256 0.0 1.0 0.00 0.04 0.04 93 1019.6
20260830220113 66 257 0.0 1.0 0.00 0.04 0.04 93 1019.6
20260830214513 66 252 0.0 1.0 0.00 0.04 0.04 93 1019.5
20260830213011 66 252 0.0 1.0 0.00 0.04 0.04 92 1019.4
20260830211511 66 254 0.0 1.0 0.00 0.04 0.04 92 1019.5
20260830210015 66 250 0.0 2.0 0.00 0.04 0.04 93 1019.5
20260830204526 66 242 0.0 3.0 0.00 0.04 0.04 94 1019.5
20260830203009 66 300 0.0 1.0 0.01 0.04 0.04 94 1019.5
20260830201514 65 300 0.0 1.0 0.01 0.04 0.04 93 1019.7
20260830200008 65 242 0.0 5.0 0.01 0.04 0.04 93 1019.8
20260830194508 66 5 0.0 3.0 0.01 0.04 0.04 94 1020.0
20260830193008 67 213 0.0 1.0 0.00 0.03 0.03 94 1020.0
20260830191507 67 213 0.0 1.0 0.00 0.03 0.03 93 1019.9
20260830190007 67 110 0.0 2.0 0.00 0.03 0.03 93 1020.0
20260830184507 67 295 0.0 6.0 0.00 0.03 0.03 93 1020.3
20260830183006 67 235 1.0 5.0 0.00 0.03 0.03 95 1020.2
20260830181505 68 235 2.0 9.0 0.00 0.03 0.03 96 1020.4
20260830174505 68 307 0.0 0.0 0.00 0.03 0.03 96 1020.4
20260830173100 68 307 0.0 0.0 0.00 0.03 0.03 96 1020.4
20260830171611 68 306 0.0 0.0 0.00 0.03 0.03 96 1020.4
20260830170059 67 306 0.0 2.0 0.00 0.03 0.03 96 1020.2
20260830164601 67 306 0.0 0.0 0.00 0.03 0.03 97 1020.1
20260830163101 67 309 0.0 0.0 0.00 0.03 0.03 97 1020.3
20260830161608 67 309 0.0 0.0 0.01 0.03 0.03 96 1020.3
20260830160055 66 313 0.0 1.0 0.03 0.03 0.03 96 1020.5
20260830154554 66 313 0.0 2.0 0.03 0.03 0.03 96 1020.7
20260830153052 66 319 0.0 1.0 0.03 0.03 0.03 95 1020.8
20260830151557 66 329 0.0 2.0 0.02 0.02 0.02 94 1020.9
20260830150049 67 320 0.0 6.0 0.00 0.00 0.00 94 1020.6
20260830144548 67 316 0.0 5.0 0.00 0.00 0.00 94 1020.5
20260830143046 66 205 0.0 0.0 0.00 0.00 0.00 94 1020.1
20260830141546 66 205 0.0 0.0 0.00 0.00 0.00 93 1020.0
20260830134543 65 205 0.0 1.0 0.00 0.00 0.00 92 1019.6
20260830133046 65 205 0.0 0.0 0.00 0.00 0.00 92 1019.7
20260830131542 65 205 0.0 1.0 0.00 0.00 0.00 92 1019.7
20260830130051 65 205 0.0 1.0 0.00 0.00 0.00 92 1019.4
20260830124543 64 205 0.0 1.0 0.00 0.00 0.00 91 1019.4
20260830123038 65 205 0.0 0.0 0.00 0.00 0.00 91 1019.8
20260830121536 64 205 0.0 0.0 0.00 0.00 0.00 90 1019.7
20260830120033 64 205 0.0 0.0 0.00 0.00 0.00 91 1019.7
20260830114533 64 205 0.0 0.0 0.00 0.00 0.00 92 1019.8
20260830113030 63 205 0.0 1.0 0.00 0.00 0.00 92 1019.5
20260830111530 63 205 0.0 0.0 0.00 0.00 0.00 92 1019.6
20260830110039 63 205 0.0 0.0 0.00 0.00 0.00 92 1019.6
20260830104535 63 205 0.0 0.0 0.00 0.00 0.00 92 1019.7
20260830103027 63 205 0.0 0.0 0.00 0.00 0.00 92 1019.7
20260830101526 63 205 0.0 1.0 0.00 0.00 0.00 92 1019.6
20260830100026 63 205 0.0 1.0 0.00 0.00 0.00 93 1019.6
20260830094525 63 205 0.0 1.0 0.00 0.00 0.00 93 1019.6
20260830093024 63 205 0.0 1.0 0.00 0.00 0.00 94 1019.6
20260830091524 62 251 0.0 0.0 0.00 0.00 0.00 95 1019.4
20260830090022 62 252 0.0 0.0 0.00 0.00 0.00 95 1019.4
20260830084521 62 252 0.0 0.0 0.00 0.00 0.00 95 1019.6
20260830083020 62 252 0.0 1.0 0.00 0.00 0.00 95 1019.6
20260830081517 62 252 0.0 0.0 0.00 0.00 0.00 95 1020.0
20260830080016 61 252 0.0 0.0 0.00 0.00 0.00 95 1020.1
20260830074516 61 252 0.0 0.0 0.00 0.00 0.00 95 1020.2
20260830073015 61 252 0.0 0.0 0.00 0.00 0.00 95 1020.0
20260830071537 61 252 0.0 0.0 0.00 0.00 0.00 94 1020.1
20260830070020 61 252 0.0 0.0 0.00 0.00 0.00 94 1020.2
20260830064511 61 252 0.0 0.0 0.00 0.00 0.00 93 1020.2
20260830063009 62 252 0.0 0.0 0.00 0.00 0.00 92 1020.3
20260830061506 63 252 0.0 0.0 0.00 0.00 0.00 92 1020.4
20260830060005 63 252 0.0 0.0 0.00 0.00 0.00 92 1020.4